Weather History for Bentonville, AR

Change the Weather History Date:

Monday, June 10, 2013

  Actual Average Record
Temperature  
Mean Temperature 76 °F -  
Max Temperature 89 °F 82 °F 98 °F (1953)
Min Temperature 64 °F 61 °F 49 °F (1980)
Cooling Degree Days 12    
Growing Degree Days 26 (Base 50)    
Moisture  
Dew Point 63 °F    
Average Humidity 62    
Maximum Humidity 78    
Minimum Humidity 40    
Precipitation  
Precipitation 0.00 in - - ()
Sea Level Pressure  
Sea Level Pressure 29.91 in    
Wind  
Wind Speed 7 mph (SW)    
Max Wind Speed 16 mph    
Max Gust Speed 22 mph    
Visibility 10 miles    
Events      
Averages and records for this station are not official NWS values.
T = Trace of Precipitation, MM = Missing Value Source: NWS Daily Summary

Daily Weather History Graph

Daily Weather History Graph

Search for Another Location

Airport:

Trip Planner

Search our weather history database for the weather conditions in past years. The results will help you decide how hot, cold, wet, or windy it might be!

Date:

Astronomy

Jun. 10, 2013 Rise Set
Actual Time 5:58 AM CDT 8:34 PM CDT
Civil Twilight 5:28 AM CDT 9:04 PM CDT
Nautical Twilight 4:50 AM CDT 9:42 PM CDT
Astronomical Twilight 4:08 AM CDT 10:24 PM CDT
Moon 7:45 AM CDT (6/10) 10:04 PM CDT (6/10)
Length of Visible Light 15h 36m
Length of Day
14h 35m
Waxing Crescent, 4% of the Moon is Illuminated
Jun 10
Waxing Crescent
Jun 16
First Quarter
Jun 23
Full
Jun 29
Last Quarter
Jul 8
New

Hourly Weather History & Observations

Time (CDT) Temp. Heat Index Dew Point Humidity Pressure Visibility Wind Dir Wind Speed Gust Speed Precip Events Conditions
12:15 AM 66.2 °F - 55.4 °F 68% 29.89 in 10.0 mi South 4.6 mph - N/A   Clear
12:35 AM 66.2 °F - 55.4 °F 68% 29.89 in 10.0 mi South 3.5 mph - N/A   Clear
12:55 AM 66.2 °F - 57.2 °F 73% 29.89 in 10.0 mi South 3.5 mph - N/A   Clear
1:16 AM 66.2 °F - 55.4 °F 68% 29.88 in 10.0 mi South 5.8 mph - N/A   Clear
1:35 AM 64.4 °F - 55.4 °F 73% 29.87 in 10.0 mi South 5.8 mph - N/A   Clear
1:55 AM 66.2 °F - 55.4 °F 68% 29.87 in 10.0 mi South 5.8 mph - N/A   Clear
2:15 AM 66.2 °F - 55.4 °F 68% 29.87 in 10.0 mi South 5.8 mph - N/A   Clear
2:35 AM 66.2 °F - 55.4 °F 68% 29.87 in 10.0 mi SSW 4.6 mph - N/A   Clear
2:55 AM 66.2 °F - 57.2 °F 73% 29.87 in 10.0 mi SW 6.9 mph - N/A   Partly Cloudy
3:15 AM 66.2 °F - 57.2 °F 73% 29.87 in 10.0 mi WSW 5.8 mph - N/A   Partly Cloudy
3:35 AM 66.2 °F - 57.2 °F 73% 29.87 in 10.0 mi WSW 3.5 mph - N/A   Mostly Cloudy
3:55 AM 66.2 °F - 57.2 °F 73% 29.88 in 10.0 mi WSW 3.5 mph - N/A   Mostly Cloudy
4:15 AM 68.0 °F - 57.2 °F 68% 29.88 in 10.0 mi West 4.6 mph - N/A   Mostly Cloudy
4:35 AM 68.0 °F - 57.2 °F 68% 29.88 in 10.0 mi SW 6.9 mph - N/A   Partly Cloudy
4:55 AM 66.2 °F - 59.0 °F 78% 29.89 in 10.0 mi WSW 4.6 mph - N/A   Scattered Clouds
5:15 AM 66.2 °F - 57.2 °F 73% 29.89 in 10.0 mi WSW 4.6 mph - N/A   Partly Cloudy
5:35 AM 66.2 °F - 59.0 °F 78% 29.91 in 10.0 mi WNW 4.6 mph - N/A   Partly Cloudy
5:55 AM 66.2 °F - 59.0 °F 78% 29.91 in 10.0 mi West 4.6 mph - N/A   Scattered Clouds
6:15 AM 68.0 °F - 60.8 °F 78% 29.92 in 10.0 mi West 5.8 mph - N/A   Scattered Clouds
6:35 AM 68.0 °F - 60.8 °F 78% 29.92 in 10.0 mi West 5.8 mph - N/A   Mostly Cloudy
6:55 AM 68.0 °F - 60.8 °F 78% 29.93 in 10.0 mi West 3.5 mph - N/A   Partly Cloudy
7:15 AM 69.8 °F - 60.8 °F 73% 29.93 in 10.0 mi West 3.5 mph - N/A   Clear
7:35 AM 69.8 °F - 62.6 °F 78% 29.93 in 10.0 mi West 3.5 mph - N/A   Clear
7:55 AM 71.6 °F - 62.6 °F 73% 29.93 in 10.0 mi West 3.5 mph - N/A   Clear
8:15 AM 73.4 °F - 62.6 °F 69% 29.94 in 10.0 mi West 5.8 mph - N/A   Clear
8:35 AM 73.4 °F - 64.4 °F 73% 29.94 in 10.0 mi West 8.1 mph - N/A   Clear
8:55 AM 75.2 °F - 64.4 °F 69% 29.95 in 10.0 mi West 11.5 mph 16.1 mph N/A   Clear
9:15 AM 75.2 °F - 64.4 °F 69% 29.95 in 10.0 mi West 10.4 mph - N/A   Clear
9:35 AM 77.0 °F - 66.2 °F 69% 29.95 in 10.0 mi WSW 9.2 mph - N/A   Clear
9:55 AM 78.8 °F - 66.2 °F 65% 29.95 in 10.0 mi West 11.5 mph 18.4 mph N/A   Clear
10:16 AM 78.8 °F - 64.4 °F 61% 29.95 in 10.0 mi West 13.8 mph - N/A   Clear
10:35 AM 78.8 °F - 66.2 °F 65% 29.95 in 10.0 mi WSW 12.7 mph 19.6 mph N/A   Clear
10:55 AM 80.6 °F 82.7 °F 66.2 °F 61% 29.95 in 10.0 mi WSW 13.8 mph 18.4 mph N/A   Clear
11:15 AM 80.6 °F 83.2 °F 68.0 °F 65% 29.94 in 10.0 mi WSW 12.7 mph - N/A   Clear
11:35 AM 82.4 °F 85.4 °F 68.0 °F 62% 29.94 in 10.0 mi WSW 10.4 mph 17.3 mph N/A   Clear
11:55 AM 82.4 °F 84.6 °F 66.2 °F 58% 29.94 in 10.0 mi West 13.8 mph - N/A   Clear
12:15 PM 84.2 °F 86.6 °F 66.2 °F 55% 29.94 in 10.0 mi WSW 13.8 mph 19.6 mph N/A   Clear
12:35 PM 84.2 °F 87.3 °F 68.0 °F 58% 29.94 in 10.0 mi WSW 15.0 mph 20.7 mph N/A   Clear
12:55 PM 86.0 °F 89.4 °F 68.0 °F 55% 29.93 in 10.0 mi SW 15.0 mph 21.9 mph N/A   Clear
1:15 PM 86.0 °F 88.2 °F 66.2 °F 51% 29.93 in 10.0 mi WSW 13.8 mph 18.4 mph N/A   Clear
1:35 PM 86.0 °F 88.2 °F 66.2 °F 51% 29.92 in 10.0 mi West 13.8 mph - N/A   Clear
1:55 PM 87.8 °F 89.4 °F 64.4 °F 46% 29.91 in 10.0 mi WSW 11.5 mph 19.6 mph N/A   Clear
2:15 PM 87.8 °F 89.4 °F 64.4 °F 46% 29.91 in 10.0 mi WSW 11.5 mph 20.7 mph N/A   Clear
2:35 PM 87.8 °F 88.5 °F 62.6 °F 43% 29.91 in 10.0 mi WSW 13.8 mph - N/A   Clear
2:55 PM 89.6 °F 90.1 °F 62.6 °F 40% 29.90 in 10.0 mi WSW 16.1 mph 20.7 mph N/A   Clear
3:15 PM 89.6 °F 91.1 °F 64.4 °F 43% 29.90 in 10.0 mi WSW 12.7 mph 18.4 mph N/A   Clear
3:35 PM 89.6 °F 90.1 °F 62.6 °F 40% 29.90 in 10.0 mi West 11.5 mph - N/A   Clear
3:55 PM 89.6 °F 91.1 °F 64.4 °F 43% 29.91 in 10.0 mi West 11.5 mph 18.4 mph N/A   Clear
4:15 PM 89.6 °F 92.2 °F 66.2 °F 46% 29.90 in 10.0 mi WSW 9.2 mph 16.1 mph N/A   Clear
4:35 PM 89.6 °F 92.2 °F 66.2 °F 46% 29.90 in 10.0 mi West 10.4 mph - N/A   Clear
4:56 PM 89.6 °F 92.2 °F 66.2 °F 46% 29.90 in 10.0 mi WSW 11.5 mph - N/A   Clear
5:15 PM 89.6 °F 92.2 °F 66.2 °F 46% 29.90 in 10.0 mi WSW 9.2 mph 16.1 mph N/A   Clear
5:35 PM 89.6 °F 92.2 °F 66.2 °F 46% 29.90 in 10.0 mi WSW 10.4 mph - N/A   Clear
5:55 PM 87.8 °F 90.4 °F 66.2 °F 49% 29.91 in 10.0 mi WSW 8.1 mph - N/A   Clear
6:15 PM 87.8 °F 90.4 °F 66.2 °F 49% 29.91 in 10.0 mi SSW 10.4 mph - N/A   Clear
6:35 PM 87.8 °F 90.4 °F 66.2 °F 49% 29.91 in 10.0 mi WSW 6.9 mph - N/A   Clear
6:55 PM 87.8 °F 90.4 °F 66.2 °F 49% 29.91 in 10.0 mi SW 9.2 mph - N/A   Clear
7:15 PM 86.0 °F 88.2 °F 66.2 °F 51% 29.91 in 10.0 mi SW 6.9 mph - N/A   Clear
7:35 PM 86.0 °F 88.2 °F 66.2 °F 51% 29.91 in 10.0 mi SSW 4.6 mph - N/A   Clear
7:55 PM 84.2 °F 86.6 °F 66.2 °F 55% 29.91 in 10.0 mi SSW 5.8 mph - N/A   Clear
8:15 PM 84.2 °F 86.6 °F 66.2 °F 55% 29.92 in 10.0 mi SSW 4.6 mph - N/A   Clear
8:36 PM 82.4 °F 84.6 °F 66.2 °F 58% 29.91 in 10.0 mi SSW 4.6 mph - N/A   Clear
8:55 PM 80.6 °F 82.7 °F 66.2 °F 61% 29.91 in 10.0 mi South 4.6 mph - N/A   Clear
9:15 PM 78.8 °F - 64.4 °F 61% 29.92 in 10.0 mi South 4.6 mph - N/A   Clear
9:35 PM 78.8 °F - 64.4 °F 61% 29.92 in 10.0 mi South 5.8 mph - N/A   Clear
9:55 PM 77.0 °F - 64.4 °F 65% 29.92 in 10.0 mi South 4.6 mph - N/A   Clear
10:15 PM 77.0 °F - 64.4 °F 65% 29.93 in 10.0 mi South 4.6 mph - N/A   Clear
10:35 PM 75.2 °F - 64.4 °F 69% 29.93 in 10.0 mi South 5.8 mph - N/A   Clear
10:56 PM 77.0 °F - 64.4 °F 65% 29.93 in 10.0 mi South 4.6 mph - N/A   Clear
11:15 PM 77.0 °F - 64.4 °F 65% 29.93 in 10.0 mi South 4.6 mph - N/A   Clear
11:35 PM 75.2 °F - 64.4 °F 69% 29.93 in 10.0 mi South 4.6 mph - N/A   Clear
11:55 PM 75.2 °F - 64.4 °F 69% 29.93 in 10.0 mi South 5.8 mph - N/A   Clear